sat.trackr.live / text

‹ back to catalog

STARLINK-37206

NORAD 68326 · 2026-059F

PAYLOAD ACTIVE UNKNOWN

§ Identity

Operator
Country
US
Launch date
2026-03-22
Launch site
AFETR
Launch vehicle
Mass (kg)
RCS (m²)

Purposes: comms

External: N2YO · Heavens-Above · Gunter

§ Orbital elements

Epoch: 2026-05-24T21:01:23.153952Z

Period
94.11 min
Inclination
53.1587°
Eccentricity
0.0001126
Mean motion
15.30205241 rev/d
Perigee alt
474.4 km
Apogee alt
476.0 km
Semi-major
6,853.3 km
B*
4.0940e-4
RAAN
354.1373°
Arg perigee
101.9816°
Mean anomaly
258.1311°
Rev number
984

§ Raw data

STARLINK-372061 68326U 26059F   26144.87596243  .00011787  00000+0  40940-3 0  99912 68326  53.1587 354.1373 0001126 101.9816 258.1311 15.30205241  9843

JSON: /api/v1/satellites/68326 · /tle

For live sub-satellite position, see the globe view (requires WebGL).

§ Visibility from observer

Set your observer location to see the next 7 days of passes ≥ 10°. The values pass through the URL so the page stays shareable.

No JS? Fill the form by hand. The geolocation button needs JavaScript.